KC5JIM Weather Reports


Display with metric or nautical units.
time (UTC)temp
F
wind
direction
speed
MPH
gust
MPH
rain 1hr
in
rain 24hr
in
rain mn
in
humidity
%
barometer
mb
20260902175636 87 253 2.0 7.0 0.00 0.00 0.00 47 1012.0
20260902175132 87 158 4.0 8.0 0.00 0.00 0.00 48 1012.1
20260902174628 86 119 1.0 3.0 0.00 0.00 0.00 48 1012.1
20260902174124 87 129 2.0 10.0 0.00 0.00 0.00 49 1012.1
20260902173620 87 137 5.0 9.0 0.00 0.00 0.00 48 1012.1
20260902173116 87 67 2.0 9.0 0.00 0.00 0.00 48 1011.8
20260902172612 88 81 6.0 11.0 0.00 0.00 0.00 48 1011.8
20260902172108 88 109 5.0 5.0 0.00 0.00 0.00 46 1011.9
20260902171604 87 265 2.0 4.0 0.00 0.00 0.00 48 1012.0
20260902171100 85 11 1.0 3.0 0.00 0.00 0.00 48 1012.1
20260902170556 87 78 4.0 7.0 0.00 0.00 0.00 49 1012.1
20260902165549 85 111 4.0 7.0 0.00 0.00 0.00 50 1012.5
20260902165045 85 125 2.0 3.0 0.00 0.00 0.00 49 1012.5
20260902164540 85 164 4.0 5.0 0.00 0.00 0.00 50 1012.2
20260902164036 86 85 6.0 7.0 0.00 0.00 0.00 50 1012.1
20260902163754 85 105 2.0 4.0 0.00 0.00 0.00 50 1012.2
20260902163029 86 316 2.0 4.0 0.00 0.00 0.00 49 1012.2
20260902162524 85 82 2.0 4.0 0.00 0.00 0.00 50 1012.3
20260902162020 84 111 2.0 4.0 0.00 0.00 0.00 52 1012.4
20260902161516 83 198 3.0 4.0 0.00 0.00 0.00 52 1012.2
20260902161012 85 92 5.0 9.0 0.00 0.00 0.00 52 1012.3
20260902160509 85 88 2.0 6.0 0.00 0.00 0.00 50 1012.0
20260902160224 86 338 5.0 5.0 0.00 0.00 0.00 49 1011.8
20260902155500 85 124 0.0 2.0 0.00 0.00 0.00 50 1012.0
20260902154956 83 359 1.0 3.0 0.00 0.00 0.00 52 1012.2
20260902154452 84 260 1.0 3.0 0.00 0.00 0.00 51 1011.9
20260902153948 83 139 2.0 4.0 0.00 0.00 0.00 55 1012.1
20260902153444 83 126 2.0 3.0 0.00 0.00 0.00 55 1012.1
20260902152940 83 287 0.0 2.0 0.00 0.00 0.00 55 1012.3
20260902152436 83 201 2.0 4.0 0.00 0.00 0.00 57 1012.1
20260902151932 82 153 2.0 3.0 0.00 0.00 0.00 58 1012.2
20260902151428 82 242 2.0 4.0 0.00 0.00 0.00 60 1012.0
20260902151418 83 206 3.0 5.0 0.00 0.00 0.00 59 1012.2
20260902150420 82 252 4.0 5.0 0.00 0.00 0.00 60 1012.1
20260902145916 82 255 4.0 6.0 0.00 0.00 0.00 61 1012.3
20260902145412 82 200 4.0 6.0 0.00 0.00 0.00 62 1011.8
20260902144908 82 259 2.0 4.0 0.00 0.00 0.00 60 1012.0
20260902144404 82 214 3.0 5.0 0.00 0.00 0.00 62 1012.0
20260902143900 82 274 2.0 4.0 0.00 0.00 0.00 64 1012.0
20260902143356 82 301 0.0 4.0 0.00 0.00 0.00 61 1012.2
20260902142852 80 89 2.0 4.0 0.00 0.00 0.00 63 1012.1
20260902142609 80 226 1.0 3.0 0.00 0.00 0.00 67 1012.2
20260902142107 79 202 2.0 3.0 0.00 0.00 0.00 70 1012.1
20260902141340 79 191 2.0 4.0 0.00 0.00 0.00 70 1012.3
20260902140836 79 189 2.0 3.0 0.00 0.00 0.00 70 1012.1
20260902140333 79 187 3.0 3.0 0.00 0.00 0.00 69 1011.9
20260902135829 78 257 0.0 2.0 0.00 0.00 0.00 70 1012.1
20260902135324 78 180 0.0 2.0 0.00 0.00 0.00 70 1011.8
20260902134820 78 315 1.0 2.0 0.00 0.00 0.00 71 1011.8
20260902134316 78 329 0.0 2.0 0.00 0.00 0.00 71 1011.7
20260902133813 77 264 2.0 2.0 0.00 0.00 0.00 71 1011.9
20260902133309 76 324 0.0 2.0 0.00 0.00 0.00 73 1011.8
20260902132804 76 41 0.0 2.0 0.00 0.00 0.00 75 1011.8
20260902132300 75 250 1.0 2.0 0.00 0.00 0.00 75 1011.6
20260902131756 75 283 0.0 2.0 0.00 0.00 0.00 75 1011.7
20260902131514 75 0 2.0 4.0 0.00 0.00 0.00 75 1011.5
20260902130748 74 39 1.0 2.0 0.00 0.00 0.00 78 1011.8
20260902130734 74 6 0.0 2.0 0.00 0.00 0.00 78 1011.7
20260902125740 74 326 1.0 3.0 0.00 0.00 0.00 78 1011.7
20260902125236 74 190 0.0 2.0 0.00 0.00 0.00 78 1011.6
20260902124732 74 82 2.0 2.0 0.00 0.00 0.00 78 1011.8
20260902124229 73 357 3.0 4.0 0.00 0.00 0.00 79 1011.6
20260902123725 73 25 2.0 4.0 0.00 0.00 0.00 79 1011.5
20260902123220 73 354 2.0 5.0 0.00 0.00 0.00 80 1011.5
20260902122716 72 358 2.0 3.0 0.00 0.00 0.00 80 1011.5
20260902122433 72 86 1.0 2.0 0.00 0.00 0.00 80 1011.5
20260902121931 72 328 1.0 2.0 0.00 0.00 0.00 81 1011.7
20260902121429 72 47 2.0 4.0 0.00 0.00 0.00 81 1011.4
20260902120700 72 238 0.0 3.0 0.00 0.00 0.00 81 1011.4
20260902120156 72 283 0.0 3.0 0.00 0.00 0.00 81 1011.6
20260902115652 72 315 0.0 2.0 0.00 0.00 0.00 80 1011.5
20260902115410 72 202 0.0 3.0 0.00 0.00 0.00 80 1011.4
20260902114644 72 261 1.0 3.0 0.00 0.00 0.00 80 1011.4
20260902114140 73 308 0.0 5.0 0.00 0.00 0.00 80 1011.4
20260902113636 72 334 0.0 3.0 0.00 0.00 0.00 80 1011.5
20260902113132 72 130 1.0 2.0 0.00 0.00 0.00 80 1011.4
20260902112628 72 343 0.0 2.0 0.00 0.00 0.00 80 1011.6
20260902112124 73 336 1.0 3.0 0.00 0.00 0.00 79 1011.2
20260902112110 73 291 0.0 2.0 0.00 0.00 0.00 79 1011.5
20260902111338 73 322 0.0 2.0 0.00 0.00 0.00 78 1011.3
20260902110612 73 297 0.0 2.0 0.00 0.00 0.00 78 1011.3
20260902110108 73 330 1.0 3.0 0.00 0.00 0.00 78 1011.4
20260902105604 73 276 2.0 3.0 0.00 0.00 0.00 78 1011.5
20260902105100 74 244 0.0 1.0 0.00 0.00 0.00 77 1011.2
20260902104556 74 308 0.0 2.0 0.00 0.00 0.00 76 1011.4
20260902104052 74 307 1.0 2.0 0.00 0.00 0.00 76 1011.5
20260902103548 75 267 2.0 3.0 0.00 0.00 0.00 74 1011.1
20260902103033 75 348 2.0 3.0 0.00 0.00 0.00 73 1011.4
20260902102524 75 358 4.0 4.0 0.00 0.00 0.00 73 1011.4
20260902102020 75 317 1.0 2.0 0.00 0.00 0.00 74 1011.3
20260902101516 75 353 3.0 4.0 0.00 0.00 0.00 74 1011.4
20260902101012 75 7 3.0 4.0 0.00 0.00 0.00 74 1011.4
20260902100508 75 358 3.0 3.0 0.00 0.00 0.00 74 1011.4
20260902100004 75 353 2.0 3.0 0.00 0.00 0.00 74 1011.5
20260902095500 75 333 0.0 3.0 0.00 0.00 0.00 74 1011.5
20260902095219 74 326 0.0 2.0 0.00 0.00 0.00 75 1011.3
20260902094712 74 16 1.0 1.0 0.00 0.00 0.00 76 1011.8
20260902093948 74 328 1.0 3.0 0.00 0.00 0.00 76 1011.4
20260902093444 74 296 0.0 2.0 0.00 0.00 0.00 76 1011.5
20260902093201 75 276 1.0 2.0 0.00 0.00 0.00 75 1011.4
20260902092436 75 257 0.0 1.0 0.00 0.00 0.00 74 1011.4
20260902091932 75 214 0.0 2.0 0.00 0.00 0.00 74 1011.4
20260902091428 75 207 2.0 2.0 0.00 0.00 0.00 74 1011.3
20260902091147 76 203 3.0 3.0 0.00 0.00 0.00 72 1011.2
20260902090420 76 164 0.0 2.0 0.00 0.00 0.00 71 1011.2
20260902085917 77 284 0.0 1.0 0.00 0.00 0.00 69 1010.9
20260902085412 77 294 1.0 4.0 0.00 0.00 0.00 68 1011.2
20260902085128 77 355 1.0 3.0 0.00 0.00 0.00 69 1011.0
20260902084404 76 342 1.0 2.0 0.00 0.00 0.00 70 1011.0
20260902083900 76 205 0.0 0.0 0.00 0.00 0.00 71 1011.2
20260902083356 77 212 0.0 2.0 0.00 0.00 0.00 70 1011.3
20260902082852 79 245 1.0 2.0 0.00 0.00 0.00 65 1011.0
20260902082348 79 19 0.0 2.0 0.00 0.00 0.00 63 1010.8
20260902082106 78 59 1.0 2.0 0.00 0.00 0.00 64 1010.7
20260902081340 79 353 1.0 2.0 0.00 0.00 0.00 64 1010.8
20260902080837 78 356 1.0 2.0 0.00 0.00 0.00 64 1010.9
20260902080332 78 354 0.0 2.0 0.00 0.00 0.00 65 1011.1
20260902075828 78 14 1.0 2.0 0.00 0.00 0.00 65 1010.9
20260902075324 77 5 1.0 2.0 0.00 0.00 0.00 67 1011.3
20260902075043 77 2 2.0 2.0 0.00 0.00 0.00 68 1011.2
20260902074316 77 255 0.0 2.0 0.00 0.00 0.00 68 1011.1
20260902073812 77 89 0.0 1.0 0.00 0.00 0.00 68 1011.0
20260902073532 77 337 1.0 2.0 0.00 0.00 0.00 69 1011.1
20260902072804 76 328 1.0 2.0 0.00 0.00 0.00 69 1011.2
20260902072300 76 326 0.0 2.0 0.00 0.00 0.00 70 1011.1
20260902071756 77 321 1.0 2.0 0.00 0.00 0.00 70 1011.0
20260902071513 77 62 0.0 1.0 0.00 0.00 0.00 69 1011.0
20260902070748 77 220 1.0 2.0 0.00 0.00 0.00 68 1010.9
20260902070244 77 283 1.0 2.0 0.00 0.00 0.00 67 1011.0
20260902065740 78 230 0.0 3.0 0.00 0.00 0.00 66 1010.9
20260902065236 78 241 0.0 2.0 0.00 0.00 0.00 67 1010.9
20260902064732 78 230 0.0 1.0 0.00 0.00 0.00 64 1010.7
20260902064229 79 309 0.0 1.0 0.00 0.00 0.00 65 1010.8
20260902063948 78 301 1.0 1.0 0.00 0.00 0.00 66 1010.8
20260902063221 78 255 0.0 2.0 0.00 0.00 0.00 66 1011.0
20260902062716 78 269 0.0 2.0 0.00 0.00 0.00 66 1010.9
20260902062437 78 321 0.0 1.0 0.00 0.00 0.00 66 1011.0
20260902061708 78 202 1.0 2.0 0.00 0.00 0.00 66 1010.8
20260902061205 78 260 0.0 2.0 0.00 0.00 0.00 66 1010.8
20260902060700 78 102 0.0 3.0 0.00 0.00 0.00 67 1011.1
20260902060419 78 324 0.0 2.0 0.00 0.00 0.00 67 1011.0
20260902060146 78 224 0.0 1.0 0.00 0.00 0.00 67 1010.9
20260902055148 78 164 0.0 1.0 0.00 0.00 0.00 67 1010.9
20260902054644 78 309 0.0 2.0 0.00 0.00 0.00 67 1011.1
20260902054400 79 285 0.0 3.0 0.00 0.00 0.00 65 1011.1
20260902053636 80 9 0.0 1.0 0.00 0.00 0.00 62 1010.9
20260902053132 80 135 0.0 1.0 0.00 0.00 0.00 62 1010.8
20260902052628 80 315 0.0 1.0 0.00 0.00 0.00 61 1010.8
20260902052616 80 283 0.0 1.0 0.00 0.00 0.00 60 1010.9
20260902051621 82 253 1.0 2.0 0.00 0.00 0.00 59 1011.0
20260902051116 82 33 1.0 2.0 0.00 0.00 0.00 56 1010.8
20260902050835 81 75 0.0 1.0 0.00 0.00 0.00 57 1011.1
20260902050108 81 76 0.0 2.0 0.00 0.00 0.00 58 1011.1
20260902045604 80 75 0.0 2.0 0.00 0.00 0.00 59 1011.0
20260902045101 80 323 0.0 3.0 0.00 0.00 0.00 61 1011.2
20260902044557 82 272 2.0 3.0 0.00 0.00 0.00 57 1011.0
20260902044053 83 279 1.0 2.0 0.00 0.00 0.00 56 1010.7
20260902043549 83 315 0.0 1.0 0.00 0.00 0.00 53 1011.0
20260902043045 83 44 0.0 2.0 0.00 0.00 0.00 54 1010.9
20260902042803 82 298 1.0 2.0 0.00 0.00 0.00 53 1010.7
20260902042037 83 311 0.0 2.0 0.00 0.00 0.00 55 1010.7
20260902041532 84 303 1.0 2.0 0.00 0.00 0.00 54 1010.8
20260902041028 85 122 1.0 2.0 0.00 0.00 0.00 49 1010.6
20260902040525 85 174 0.0 3.0 0.00 0.00 0.00 49 1010.5
20260902040020 85 99 3.0 5.0 0.00 0.00 0.00 48 1010.4
20260902035516 85 86 2.0 4.0 0.00 0.00 0.00 48 1010.4
20260902035012 85 100 3.0 4.0 0.00 0.00 0.00 48 1010.3
20260902034508 86 117 2.0 3.0 0.00 0.00 0.00 48 1010.3
20260902034004 86 94 3.0 6.0 0.00 0.00 0.00 48 1010.1
20260902033500 86 89 2.0 5.0 0.00 0.00 0.00 48 1010.5
20260902032956 86 85 3.0 5.0 0.00 0.00 0.00 48 1010.3
20260902032452 86 76 3.0 5.0 0.00 0.00 0.00 48 1010.0
20260902031948 86 83 2.0 4.0 0.00 0.00 0.00 48 1009.9
20260902031444 86 96 0.0 3.0 0.00 0.00 0.00 48 1009.7
20260902030940 86 92 3.0 5.0 0.00 0.00 0.00 47 1009.7
20260902030436 87 89 3.0 5.0 0.00 0.00 0.00 46 1009.6
20260902025932 87 83 4.0 6.0 0.00 0.00 0.00 46 1009.3
20260902025429 87 127 0.0 5.0 0.00 0.00 0.00 45 1009.3
20260902025147 87 142 2.0 9.0 0.00 0.00 0.00 45 1009.3
20260902024421 87 135 2.0 4.0 0.00 0.00 0.00 44 1009.2
20260902023917 87 96 3.0 7.0 0.00 0.00 0.00 44 1009.2
20260902023413 87 147 2.0 6.0 0.00 0.00 0.00 43 1009.3
20260902022909 87 153 4.0 6.0 0.00 0.00 0.00 43 1009.1
20260902022405 88 160 4.0 6.0 0.00 0.00 0.00 42 1008.8
20260902022354 88 133 9.0 10.0 0.00 0.00 0.00 42 1009.1
20260902021357 88 163 3.0 7.0 0.00 0.00 0.00 42 1008.9
20260902020853 88 126 4.0 6.0 0.00 0.00 0.00 42 1008.8
20260902020349 88 122 4.0 8.0 0.00 0.00 0.00 43 1009.0
20260902015844 88 137 3.0 7.0 0.00 0.00 0.00 43 1008.8
20260902015340 88 150 5.0 7.0 0.00 0.00 0.00 43 1008.9
20260902015057 89 150 6.0 10.0 0.00 0.00 0.00 43 1008.7
20260902014333 89 153 5.0 12.0 0.00 0.00 0.00 43 1008.8
20260902013828 89 144 9.0 12.0 0.00 0.00 0.00 43 1008.5
20260902013324 89 169 7.0 10.0 0.00 0.00 0.00 42 1008.7
20260902012820 90 126 5.0 11.0 0.00 0.00 0.00 42 1008.7
20260902012317 90 161 6.0 12.0 0.00 0.00 0.00 42 1008.8
20260902011813 90 112 8.0 12.0 0.00 0.00 0.00 41 1008.7
20260902011802 90 161 5.0 12.0 0.00 0.00 0.00 41 1008.9
20260902010804 90 146 11.0 12.0 0.00 0.00 0.00 41 1008.9
20260902010301 90 125 3.0 12.0 0.00 0.00 0.00 40 1008.6
20260902005756 90 151 13.0 13.0 0.00 0.00 0.00 39 1008.6
20260902005252 91 163 8.0 8.0 0.00 0.00 0.00 38 1008.5
20260902004749 91 176 4.0 13.0 0.00 0.00 0.00 38 1008.8
20260902004244 91 189 8.0 10.0 0.00 0.00 0.00 38 1008.8
20260902004002 90 163 4.0 10.0 0.00 0.00 0.00 38 1008.8
20260902003236 91 127 4.0 13.0 0.00 0.00 0.00 37 1008.7
20260902002732 91 165 6.0 11.0 0.00 0.00 0.00 38 1008.9
20260902002228 91 165 8.0 15.0 0.00 0.00 0.00 37 1008.8
20260902001944 91 163 9.0 17.0 0.00 0.00 0.00 37 1009.0
20260902001221 91 176 12.0 14.0 0.00 0.00 0.00 37 1008.8
20260902000716 91 139 4.0 11.0 0.00 0.00 0.00 36 1008.9
20260902000212 91 173 11.0 14.0 0.00 0.00 0.00 36 1009.0
20260901235708 91 152 10.0 14.0 0.00 0.00 0.00 36 1008.8
20260901235204 91 159 5.0 15.0 0.00 0.00 0.00 37 1009.0
20260901234921 91 150 8.0 12.0 0.00 0.00 0.00 37 1008.9
20260901234156 91 149 11.0 17.0 0.00 0.00 0.00 37 1009.0
20260901233652 92 173 10.0 11.0 0.00 0.00 0.00 37 1009.0
20260901233148 91 161 13.0 13.0 0.00 0.00 0.00 36 1009.0
20260901232644 92 124 6.0 12.0 0.00 0.00 0.00 37 1009.1
20260901232140 91 172 6.0 11.0 0.00 0.00 0.00 38 1009.0
20260901231636 91 156 9.0 14.0 0.00 0.00 0.00 38 1009.1
20260901231356 91 181 5.0 15.0 0.00 0.00 0.00 38 1009.3
20260901230628 90 147 4.0 8.0 0.00 0.00 0.00 37 1009.4
20260901230124 91 120 2.0 12.0 0.00 0.00 0.00 37 1009.3
20260901225621 91 148 3.0 8.0 0.00 0.00 0.00 36 1009.4
20260901225117 92 161 5.0 13.0 0.00 0.00 0.00 36 1009.4
20260901224613 91 184 7.0 13.0 0.00 0.00 0.00 37 1009.3
20260901224109 92 210 13.0 14.0 0.00 0.00 0.00 36 1009.6
20260901223605 91 190 4.0 8.0 0.00 0.00 0.00 35 1009.6
20260901223101 91 158 7.0 13.0 0.00 0.00 0.00 36 1009.5
20260901222817 90 244 3.0 9.0 0.00 0.00 0.00 37 1009.7
20260901222053 90 191 7.0 11.0 0.00 0.00 0.00 36 1009.7
20260901221549 91 193 11.0 17.0 0.00 0.00 0.00 36 1009.7
20260901221045 91 192 6.0 8.0 0.00 0.00 0.00 36 1009.8
20260901220541 90 101 4.0 11.0 0.00 0.00 0.00 37 1010.0
20260901220037 91 174 6.0 13.0 0.00 0.00 0.00 36 1009.9
20260901215533 90 199 2.0 8.0 0.00 0.00 0.00 37 1010.0
20260901215028 90 153 5.0 9.0 0.00 0.00 0.00 37 1010.0
20260901214524 91 198 8.0 11.0 0.00 0.00 0.00 37 1010.1
20260901214020 91 157 5.0 8.0 0.00 0.00 0.00 36 1009.9
20260901213741 90 215 4.0 11.0 0.00 0.00 0.00 37 1010.4
20260901213234 90 204 4.0 13.0 0.00 0.00 0.00 39 1010.2
20260901212508 91 125 4.0 13.0 0.00 0.00 0.00 38 1010.2
20260901212005 89 48 0.0 8.0 0.00 0.00 0.00 38 1010.7
20260901211500 89 103 9.0 11.0 0.00 0.00 0.00 38 1010.6
20260901211220 89 52 3.0 9.0 0.00 0.00 0.00 38 1010.9
20260901210452 90 202 3.0 13.0 0.00 0.00 0.00 38 1010.8
20260901205948 89 72 8.0 10.0 0.00 0.00 0.00 38 1011.0
20260901205444 89 152 12.0 18.0 0.00 0.00 0.00 38 1011.0
20260901204940 89 102 4.0 9.0 0.00 0.00 0.00 38 1011.0
20260901204436 89 169 4.0 14.0 0.00 0.00 0.00 39 1010.9
20260901203932 89 164 3.0 10.0 0.00 0.00 0.00 38 1011.2
20260901203650 89 169 9.0 12.0 0.00 0.00 0.00 38 1011.1
20260901202924 88 152 4.0 6.0 0.00 0.00 0.00 38 1011.1
20260901202420 88 181 3.0 5.0 0.00 0.00 0.00 38 1011.4
20260901202139 89 84 4.0 7.0 0.00 0.00 0.00 38 1011.3
20260901201412 88 98 7.0 8.0 0.00 0.00 0.00 39 1011.5
20260901201130 89 20 4.0 6.0 0.00 0.00 0.00 39 1011.6
20260901200405 88 0 2.0 8.0 0.00 0.00 0.00 40 1011.9
20260901195900 88 111 5.0 9.0 0.00 0.00 0.00 40 1011.7
20260901195619 87 173 2.0 4.0 0.00 0.00 0.00 40 1011.8
20260901194852 87 93 2.0 12.0 0.00 0.00 0.00 41 1012.0
20260901194609 88 118 3.0 9.0 0.00 0.00 0.00 40 1011.7
20260901193844 87 64 6.0 7.0 0.00 0.00 0.00 40 1012.0
20260901193340 87 159 3.0 11.0 0.00 0.00 0.00 41 1012.1
20260901192836 87 160 7.0 8.0 0.00 0.00 0.00 41 1012.2
20260901192332 87 213 4.0 10.0 0.00 0.00 0.00 41 1012.2
20260901192048 87 136 6.0 9.0 0.00 0.00 0.00 40 1012.0
20260901191546 87 166 3.0 7.0 0.00 0.00 0.00 41 1012.1
20260901190820 87 153 6.0 8.0 0.00 0.00 0.00 41 1012.1
20260901190316 85 100 2.0 4.0 0.00 0.00 0.00 41 1012.2
20260901185812 86 105 6.0 8.0 0.00 0.00 0.00 41 1012.3
20260901185308 85 154 4.0 10.0 0.00 0.00 0.00 42 1012.6
20260901184804 86 142 5.0 8.0 0.00 0.00 0.00 42 1012.6
20260901184300 86 80 4.0 8.0 0.00 0.00 0.00 42 1012.4
20260901183756 87 93 4.0 5.0 0.00 0.00 0.00 40 1012.7
20260901183252 87 289 7.0 7.0 0.00 0.00 0.00 41 1012.5
20260901182748 86 74 2.0 7.0 0.00 0.00 0.00 42 1012.8
20260901182244 86 83 2.0 8.0 0.00 0.00 0.00 42 1012.5
20260901181740 85 86 7.0 11.0 0.00 0.00 0.00 42 1012.7
20260901181236 85 95 4.0 7.0 0.00 0.00 0.00 43 1012.8
20260901180732 85 83 5.0 11.0 0.00 0.00 0.00 43 1012.8
20260901180228 84 13 0.0 4.0 0.00 0.00 0.00 42 1012.8